Vertical_Velocity
1 2 1 4 -0 1 -1 -1 -2 -3 -2 0 2 1 1 1 1 -2 -1 4 6 1 3 0 0 -1 -1 -0 2 -3 1 5 -12 2 -3 9 -5 6 -1 0 11 -4 -1
1 1 4 2 4 3 1 1 1 -0 -1 -1 -1 0 1 -0 2 5 4 3 -4 -2 -1 -5 -1 2 -3 -2 1 -3 -1 12 -3 -15 6 -4 -0 2 -0 4 0 -1 -1
1 2 -0 3 2 5 8 3 2 2 2 -0 -3 -2 -1 -0 -2 -1 -4 -4 1 3 1 -1 5 -1 -5 1 -1 -1 -0 6 3 13 -12 1 -5 1 -1 2 1 1 2
-2 -1 -1 3 4 7 7 9 4 5 3 3 3 1 0 1 -2 -1 -0 2 1 -2 -4 -2 -2 -8 -3 2 -0 3 6 2 3 2 -3 -8 5 -2 -4 -3 2 3 1
2 0 12 -5 -4 -2 1 3 4 3 5 4 2 5 3 -1 2 2 1 0 -0 -1 0 3 2 2 4 6 1 -4 -1 0 3 -0 -1 -1 -6 1 -4 10 -6 5 -3
-12 9 11 7 1 3 3 2 1 1 2 -0 2 3 2 4 9 7 7 4 4 2 1 -1 1 0 1 5 2 4 5 6 2 2 1 -7 -7 -6 -8 -3 2 -6 -23
4 -11 -4 -8 -6 -2 1 2 6 8 8 5 3 -0 -0 -1 5 10 11 4 7 3 3 3 2 0 5 1 -1 -1 7 5 2 -0 -3 -4 2 6 8 -9 -5 1 -1
-3 -2 -1 -3 -0 -14 6 -11 -6 -10 -9 0 8 9 9 11 7 5 5 4 -2 -1 0 2 0 -2 -0 5 10 12 2 -2 0 1 -1 5 -2 1 0 6 6 -2 -3
-0 1 -1 -1 -2 -1 2 -1 -11 -14 -8 18 -3 -6 -6 -1 8 4 6 4 2 -2 -0 0 -0 6 0 -1 -4 -9 3 -6 -0 -1 -3 -5 -1 2 2 4 5 6 -5
0 1 -2 -3 -1 -1 -2 0 2 5 9 -8 -4 15 -4 -11 -15 -8 2 7 6 7 6 4 5 -1 8 11 -3 7 3 3 1 -5 0 1 5 2 6 4 2 6 8
1 2 3 2 1 -1 -2 -5 -2 1 3 5 2 -2 -9 -5 -4 -1 -19 -16 -17 -14 12 6 12 -4 -4 -8 6 13 14 5 2 3 0 -7 -8 -7 -2 -7 -0 21 25
-3 0 0 1 2 2 1 -1 -0 -1 2 3 7 5 4 3 5 4 8 13 19 1 -4 10 11 -4 42 6 25 -5 4 17 -2 6 -4 6 7 -1 17 10 8 0 9
0 -3 -2 0 -1 2 -0 -1 -4 -3 -3 -4 -2 1 1 3 1 -0 -1 2 14 3 8 9 19 -4 26 8 -15 -6 -2 1 34 22 32 18 12 -1 10 -0 9 2 -12
3 0 -2 -3 -4 -4 -3 -2 1 -0 0 1 1 -2 -3 -1 -3 -7 -17 6 -1 19 14 6 6 -14 9 25 8 4 8 19 15 13 -16 22 8 9 6 8 -1 -1 1
3 3 2 0 1 1 -0 -1 -0 1 -2 -3 -4 -3 -1 -1 -2 -1 -2 -1 -2 -2 -5 -2 -3 -2 2 -3 -15 7 9 1 -7 5 13 -2 -7 3 5 -6 1 1 3
2 -0 1 -2 1 1 -2 -0 4 2 -2 -0 0 -2 -3 -2 -2 -3 -2 -0 0 -0 -3 -4 -0 -1 4 7 10 -2 7 7 -0 8 6 -5 7 -8 7 3 1 1 1
-1 -3 -2 -3 -3 -2 -3 -4 -5 -4 -2 1 -1 1 2 2 1 1 -1 -1 -1 -2 -1 -8 -2 -2 4 1 2 -1 0 -4 1 2 3 -3 4 2 -4 -5 -4 -0 2
2 1 0 0 0 -1 -1 -3 -2 -3 -3 -3 -2 -2 0 1 -1 -2 -0 -2 -1 -2 2 -0 -5 -3 -2 8 2 3 -2 3 4 -3 -7 -3 -7 -2 3 1 -0 2 2
-2 -1 -1 -2 -3 -3 -4 -3 -2 -2 -2 -2 -0 2 0 -1 1 2 1 2 -1 -1 -3 -0 3 -1 -4 -1 3 2 3 2 -3 0 -4 -6 4 0 1 -3 -5 -0 -1
-1 -1 0 -2 -3 -1 -2 -2 -1 1 2 1 1 0 2 4 4 3 1 1 3 1 -0 1 0 -1 -2 -3 -1 -3 1 -2 -2 -1 -1 2 3 -3 -2 -1 -3 -5 -2
-1 -1 -1 -0 -0 -2 -0 1 2 2 -2 -1 -4 -2 1 0 0 5 5 4 -0 -2 -1 -1 -2 -2 -1 0 2 2 0 -0 2 -0 -1 0 -2 -4 -2 -3 -3 -4 -2
1 0 0 -0 -1 1 -0 -0 -2 -1 1 0 -0 -3 -0 -4 -4 -5 -3 1 4 1 -0 -1 1 -1 -0 -0 -2 -2 0 -1 -0 -1 1 -0 -2 -4 -6 -1 -3 -3 -5
0 -0 0 0 2 1 1 -0 -0 -1 0 -2 -0 -4 -5 -4 0 -2 -2 -1 1 1 -1 -2 0 0 0 -1 -1 -1 -1 -3 -1 -1 -0 1 -4 -7 -2 -2 -1 -1 1
1 0 0 1 1 0 1 0 -2 -3 -2 -1 -3 -2 -2 -1 -2 -2 -3 -3 -1 0 -1 -2 -1 -1 -1 -0 -1 -0 -1 -2 -1 -1 0 -0 0 1 -2 -2 -2 -2 -4
-1 1 0 -0 -0 -1 -0 -0 -0 0 -0 -1 -1 -1 -1 -1 -1 -1 -2 -2 -1 -0 -1 -1 0 -0 -1 -1 -1 -1 -2 -0 -1 -2 -2 -2 -2 -2 -1 -1 -1 -2 -2
-0 -0 -1 -1 -2 -1 -1 -1 -1 -1 -0 -0 -0 -0 0 0 -0 1 1 -0 -1 -1 -1 -1 -1 -1 -1 -0 1 -0 0 -1 -1 -1 -0 1 1 -0 -0 -1 -1 -1 -1
Height
3034 3035 3036 3037 3038 3039 3040 3039 3038 3039 3040 3042 3044 3046 3048 3050 3053 3055 3058 3062 3064 3069 3071 3074 3077 3082 3084 3087 3089 3090 3090 3091 3090 3093 3094 3097 3095 3096 3098 3097 3096 3095 3096
3029 3031 3033 3035 3037 3038 3039 3040 3040 3039 3040 3041 3042 3044 3046 3048 3050 3051 3054 3057 3059 3063 3066 3068 3071 3074 3077 3080 3081 3082 3084 3083 3083 3082 3084 3085 3086 3087 3088 3087 3088 3087 3085
3024 3026 3028 3031 3033 3036 3038 3038 3039 3040 3041 3041 3042 3042 3044 3046 3047 3049 3050 3051 3053 3056 3059 3061 3064 3067 3069 3071 3073 3074 3075 3075 3074 3072 3073 3074 3075 3076 3076 3076 3076 3074 3074
3019 3021 3024 3027 3029 3031 3033 3036 3037 3038 3039 3040 3040 3041 3042 3044 3044 3045 3045 3046 3047 3049 3051 3053 3055 3057 3059 3061 3062 3064 3065 3065 3065 3062 3062 3064 3063 3064 3062 3062 3060 3063 3061
3017 3019 3020 3021 3022 3024 3026 3029 3030 3032 3033 3035 3036 3037 3039 3039 3040 3041 3041 3042 3042 3042 3043 3044 3046 3048 3050 3052 3052 3053 3053 3053 3053 3051 3049 3050 3051 3049 3049 3051 3045 3048 3045
3015 3016 3017 3018 3020 3021 3023 3023 3025 3027 3028 3029 3030 3031 3032 3033 3034 3035 3036 3036 3036 3036 3037 3038 3039 3040 3041 3042 3042 3043 3043 3042 3042 3041 3038 3036 3036 3036 3038 3038 3038 3036 3030
3010 3011 3012 3014 3017 3018 3019 3020 3021 3022 3022 3022 3023 3024 3025 3025 3027 3027 3028 3026 3026 3027 3029 3030 3029 3030 3031 3031 3032 3032 3032 3031 3031 3031 3025 3024 3023 3026 3026 3023 3023 3021 3019
3005 3006 3007 3008 3010 3012 3014 3015 3015 3015 3016 3016 3016 3016 3017 3017 3018 3018 3017 3015 3015 3016 3017 3018 3017 3019 3020 3020 3020 3017 3017 3018 3017 3017 3013 3011 3010 3010 3011 3009 3008 3006 3004
2997 2998 3000 3001 3001 3002 3004 3006 3007 3006 3008 3009 3009 3008 3007 3007 3008 3007 3007 3005 3004 3004 3006 3005 3004 3004 3007 3007 3006 3004 3003 3002 3002 3000 2998 2995 2995 2995 2996 2996 2994 2993 2988
2992 2992 2992 2993 2993 2994 2995 2996 2997 2997 2997 2998 2999 2998 2996 2998 2997 2997 2997 2995 2994 2993 2995 2992 2991 2990 2992 2993 2991 2990 2986 2986 2986 2983 2983 2981 2980 2978 2978 2977 2976 2974 2972
2988 2987 2986 2986 2986 2986 2986 2987 2987 2987 2987 2987 2986 2987 2987 2987 2986 2987 2986 2985 2983 2982 2980 2979 2976 2974 2974 2975 2978 2978 2974 2969 2968 2966 2962 2961 2959 2958 2958 2956 2956 2954 2949
2983 2982 2981 2980 2979 2979 2978 2978 2978 2978 2977 2977 2976 2975 2975 2974 2974 2974 2975 2974 2973 2970 2966 2963 2960 2955 2958 2961 2960 2954 2956 2954 2953 2948 2946 2944 2943 2943 2938 2938 2936 2936 2935
2976 2975 2974 2974 2973 2971 2970 2969 2969 2969 2969 2967 2966 2964 2963 2962 2961 2961 2959 2959 2959 2958 2956 2951 2947 2946 2943 2941 2941 2941 2935 2929 2922 2927 2921 2922 2924 2918 2917 2920 2920 2921 2921
2970 2969 2968 2967 2966 2965 2964 2963 2961 2960 2959 2958 2957 2956 2953 2951 2950 2948 2946 2945 2944 2940 2937 2936 2935 2932 2927 2919 2922 2923 2922 2917 2915 2909 2910 2908 2911 2911 2912 2911 2911 2914 2914
2962 2961 2959 2958 2958 2956 2955 2956 2955 2954 2952 2950 2948 2947 2944 2941 2938 2936 2934 2932 2930 2926 2925 2922 2920 2917 2913 2909 2910 2909 2907 2905 2906 2907 2903 2904 2906 2908 2904 2906 2907 2907 2905
2954 2952 2951 2950 2949 2948 2947 2946 2946 2944 2943 2941 2939 2937 2935 2933 2929 2926 2924 2922 2919 2915 2912 2910 2910 2910 2907 2903 2901 2901 2900 2900 2901 2902 2899 2901 2901 2904 2903 2901 2902 2899 2896
2948 2946 2944 2942 2941 2940 2938 2936 2934 2933 2934 2932 2930 2928 2926 2924 2921 2919 2917 2915 2913 2911 2908 2907 2908 2906 2906 2904 2902 2899 2900 2900 2899 2897 2897 2898 2898 2898 2896 2895 2893 2892 2889
2940 2938 2936 2935 2933 2931 2930 2928 2927 2926 2925 2923 2922 2920 2918 2915 2914 2912 2910 2909 2908 2907 2906 2906 2906 2905 2904 2902 2900 2898 2898 2897 2895 2893 2893 2893 2892 2891 2888 2886 2886 2884 2881
2934 2932 2930 2928 2928 2927 2925 2924 2923 2921 2920 2918 2917 2916 2914 2912 2910 2908 2907 2906 2905 2905 2905 2904 2903 2903 2902 2901 2897 2895 2893 2892 2888 2888 2888 2889 2886 2884 2881 2880 2880 2878 2874
2927 2925 2924 2923 2921 2920 2920 2919 2917 2916 2915 2913 2913 2912 2911 2910 2908 2906 2905 2904 2902 2902 2901 2901 2899 2898 2896 2895 2894 2891 2890 2888 2886 2885 2884 2882 2880 2878 2877 2874 2872 2871 2868
2921 2920 2919 2918 2916 2916 2915 2914 2914 2913 2912 2911 2911 2910 2909 2907 2905 2904 2903 2901 2900 2899 2898 2897 2896 2894 2893 2892 2890 2888 2886 2884 2882 2881 2879 2876 2874 2872 2870 2868 2865 2864 2861
2917 2916 2915 2914 2913 2913 2912 2911 2910 2909 2909 2908 2907 2906 2906 2905 2903 2902 2901 2899 2897 2895 2894 2893 2891 2890 2889 2887 2885 2883 2881 2879 2877 2875 2873 2870 2868 2866 2865 2863 2861 2859 2856
2913 2912 2911 2911 2910 2910 2909 2908 2908 2907 2906 2904 2903 2902 2902 2901 2899 2898 2896 2895 2893 2890 2889 2887 2886 2884 2882 2880 2878 2877 2875 2873 2871 2869 2867 2865 2862 2861 2860 2858 2855 2853 2850
2909 2908 2908 2907 2907 2906 2906 2905 2904 2903 2902 2901 2900 2899 2897 2896 2894 2892 2891 2890 2888 2886 2884 2882 2880 2879 2877 2875 2873 2871 2869 2867 2865 2863 2861 2859 2858 2857 2855 2853 2851 2849 2846
2906 2905 2904 2904 2903 2902 2902 2900 2900 2899 2897 2896 2895 2894 2892 2891 2889 2887 2886 2884 2882 2880 2878 2877 2875 2873 2871 2870 2868 2866 2864 2863 2861 2859 2858 2856 2853 2851 2849 2847 2845 2843 2841
2902 2901 2900 2900 2899 2898 2897 2896 2895 2893 2892 2890 2889 2888 2886 2885 2884 2882 2880 2878 2877 2875 2873 2871 2869 2867 2866 2864 2862 2860 2858 2856 2854 2852 2851 2849 2847 2845 2844 2842 2840 2838 2837